Total_Precipitation_Accumulation
0.89 0.73 1.02 1.01 0.92 0.90 0.82 0.83 0.82 0.73 0.65 0.61 0.57 0.53 0.50 0.49 0.51 0.54 0.51 0.42 0.37 0.35 0.32 0.37 0.43 0.36 0.36 0.39 0.41 0.45 0.51 0.52 0.46 0.38 0.41 0.45 0.43 0.48 0.62 0.75 0.91 0.95 0.74
0.67 0.71 1.14 1.12 1.06 0.98 0.89 0.87 0.84 0.71 0.61 0.56 0.55 0.51 0.48 0.49 0.52 0.50 0.45 0.40 0.37 0.34 0.34 0.42 0.45 0.40 0.41 0.46 0.55 0.62 0.67 0.61 0.52 0.44 0.56 0.61 0.56 0.59 0.65 0.76 1.04 0.99 0.68
0.58 0.64 0.91 1.22 1.22 1.06 0.90 0.84 0.85 0.72 0.56 0.52 0.54 0.51 0.44 0.42 0.41 0.41 0.41 0.38 0.37 0.35 0.35 0.41 0.46 0.39 0.40 0.49 0.61 0.64 0.66 0.63 0.55 0.59 1.01 1.55 1.16 0.80 0.71 0.82 0.87 0.76 0.64
0.53 0.60 0.78 1.15 1.19 1.06 0.95 0.88 0.93 0.82 0.66 0.60 0.58 0.52 0.46 0.41 0.44 0.52 0.53 0.44 0.40 0.38 0.36 0.40 0.50 0.42 0.40 0.47 0.53 0.52 0.56 0.58 0.62 0.83 1.44 1.89 1.64 1.12 1.00 0.94 0.85 0.78 0.69
0.57 0.65 0.98 1.19 1.06 0.98 0.96 1.02 1.13 1.01 0.89 0.77 0.65 0.56 0.52 0.49 0.49 0.57 0.53 0.51 0.49 0.46 0.45 0.51 0.56 0.49 0.43 0.41 0.42 0.42 0.51 0.71 0.89 1.00 1.36 1.58 1.68 1.36 1.15 0.99 0.92 0.86 0.85
0.59 0.69 0.92 1.04 0.99 0.96 0.98 1.04 1.09 1.10 1.10 0.92 0.76 0.69 0.67 0.64 0.62 0.65 0.65 0.59 0.59 0.57 0.58 0.58 0.56 0.54 0.50 0.48 0.45 0.47 0.61 0.82 0.99 1.14 1.39 1.47 1.47 1.26 1.08 0.97 0.99 1.06 1.08
0.53 0.62 0.74 0.93 0.87 0.87 0.93 1.03 1.02 1.07 1.15 1.01 0.79 0.77 0.80 0.72 0.72 0.74 0.76 0.67 0.65 0.62 0.63 0.65 0.59 0.57 0.55 0.54 0.52 0.55 0.62 0.66 0.81 1.07 1.38 1.56 1.33 1.13 1.06 0.94 0.96 1.13 1.26
0.64 0.60 0.66 0.80 0.86 0.86 0.95 1.06 0.98 0.99 1.08 1.02 0.91 0.84 0.78 0.77 0.81 0.82 0.78 0.73 0.68 0.67 0.68 0.69 0.68 0.62 0.58 0.57 0.57 0.62 0.65 0.61 0.63 0.81 0.96 1.36 1.51 1.34 1.04 0.94 0.99 1.05 1.19
1.01 0.90 0.73 0.68 0.72 0.79 0.94 1.06 1.05 1.01 1.01 0.97 1.01 0.95 0.92 0.89 0.84 0.78 0.76 0.76 0.74 0.74 0.74 0.72 0.68 0.65 0.62 0.61 0.60 0.63 0.70 0.65 0.68 0.73 0.73 1.18 1.49 1.40 1.07 0.94 0.95 1.12 1.20
1.05 1.01 0.88 0.78 0.77 0.79 0.75 0.91 1.10 1.16 1.11 1.01 0.99 0.98 0.98 0.91 0.82 0.77 0.71 0.72 0.77 0.78 0.83 0.83 0.75 0.73 0.69 0.65 0.62 0.68 0.72 0.63 0.58 0.61 0.70 0.97 1.36 1.44 1.27 0.94 0.82 0.83 0.89
0.87 0.88 0.87 0.89 0.91 0.97 0.97 0.95 1.17 1.25 1.18 0.99 0.89 0.92 0.93 0.78 0.81 0.82 0.71 0.83 0.83 0.88 0.92 0.92 0.87 0.85 0.75 0.65 0.70 0.79 0.66 0.53 0.64 0.62 0.69 0.86 1.19 1.35 1.31 1.03 0.77 0.68 0.71
0.71 0.69 0.68 0.71 0.79 0.90 0.99 1.32 1.53 1.33 1.21 0.94 0.94 0.83 0.88 0.95 1.02 0.85 0.79 0.95 0.98 1.02 0.99 0.98 1.01 0.94 0.76 0.58 0.63 0.69 0.54 0.54 0.62 0.54 0.62 0.85 1.12 1.20 1.17 1.00 0.78 0.65 0.66
0.54 0.51 0.50 0.48 0.50 0.59 0.79 1.14 1.43 1.55 1.52 1.43 1.19 0.96 0.95 0.83 0.72 0.67 0.69 0.80 0.87 0.95 0.90 0.93 0.94 0.79 0.70 0.64 0.58 0.51 0.50 0.54 0.65 0.65 0.76 0.92 1.05 1.14 1.13 1.00 0.82 0.72 0.66
0.51 0.50 0.46 0.45 0.42 0.44 0.53 0.70 0.90 1.04 1.14 1.16 1.01 0.90 0.97 0.85 0.74 0.75 0.75 0.75 0.75 0.83 0.92 0.95 0.90 0.77 0.65 0.58 0.55 0.54 0.55 0.58 0.72 0.89 1.00 0.84 0.93 1.06 1.13 1.07 0.91 0.81 0.76
0.55 0.61 0.58 0.49 0.45 0.44 0.47 0.55 0.63 0.78 0.87 0.90 0.92 0.88 0.91 0.91 0.87 0.84 0.77 0.77 0.71 0.77 0.87 0.94 0.89 0.80 0.73 0.67 0.63 0.68 0.71 0.75 0.79 0.84 0.90 0.84 0.92 1.11 1.25 1.25 1.08 0.91 0.86
0.55 0.62 0.67 0.59 0.55 0.50 0.47 0.51 0.55 0.65 0.73 0.77 0.76 0.76 0.86 0.94 0.94 0.90 0.85 0.86 0.83 0.84 0.96 0.94 0.85 0.88 0.86 0.75 0.64 0.64 0.70 0.77 0.83 0.79 0.82 0.91 0.91 0.93 1.17 1.37 1.37 1.13 1.08
0.56 0.59 0.61 0.63 0.63 0.62 0.60 0.58 0.57 0.64 0.74 0.76 0.73 0.68 0.70 0.78 0.83 0.86 0.87 0.87 0.91 0.99 1.04 1.06 0.90 0.89 0.83 0.74 0.68 0.64 0.62 0.65 0.69 0.74 0.72 0.69 0.75 0.83 1.01 1.31 1.49 1.35 1.27
0.48 0.49 0.53 0.55 0.61 0.68 0.71 0.72 0.73 0.73 0.80 0.77 0.76 0.69 0.64 0.69 0.77 0.90 0.90 0.88 0.91 1.03 1.11 1.14 1.04 0.97 0.89 0.84 0.81 0.74 0.67 0.68 0.66 0.74 0.73 0.64 0.74 0.71 0.85 0.96 1.14 1.27 1.29
0.43 0.43 0.45 0.50 0.52 0.64 0.73 0.76 0.84 0.86 0.87 0.85 0.84 0.74 0.71 0.76 0.83 1.00 1.10 1.11 1.11 1.12 1.10 1.06 1.10 1.06 1.00 0.98 0.93 0.89 0.80 0.72 0.74 0.71 0.73 0.73 0.68 0.72 0.81 0.64 0.69 0.78 0.98
0.34 0.36 0.40 0.45 0.48 0.55 0.70 0.82 0.97 1.09 1.05 1.07 1.01 0.89 0.91 1.05 1.18 1.32 1.32 1.39 1.46 1.33 1.27 1.21 1.22 1.16 1.07 1.09 1.03 0.92 0.83 0.73 0.78 0.83 0.82 0.80 0.75 0.70 0.79 0.68 0.60 0.52 0.62
0.23 0.26 0.32 0.36 0.44 0.53 0.61 0.75 0.96 1.24 1.35 1.44 1.40 1.22 1.16 1.28 1.52 1.72 1.69 1.73 1.75 1.61 1.56 1.62 1.80 1.74 1.47 1.24 1.25 1.07 0.89 0.74 0.82 0.86 0.83 0.85 0.83 0.90 0.97 0.87 0.69 0.62 0.52
0.16 0.18 0.24 0.32 0.42 0.51 0.60 0.77 0.94 1.08 1.08 1.26 1.41 1.39 1.30 1.29 1.44 1.57 1.82 1.91 1.83 1.84 1.95 1.98 2.28 2.41 1.98 1.57 1.55 1.62 1.35 1.15 0.86 0.73 0.77 0.78 0.86 1.05 1.07 0.90 0.78 0.67 0.59
0.12 0.13 0.17 0.24 0.35 0.48 0.64 0.87 1.09 1.27 1.36 1.42 1.35 1.43 1.44 1.37 1.41 1.51 1.66 1.82 1.82 1.89 1.97 2.08 2.40 2.83 2.58 2.07 1.84 2.00 1.69 1.48 1.29 0.90 0.72 0.74 0.85 1.03 1.15 1.09 1.01 0.89 0.74
0.11 0.10 0.14 0.23 0.38 0.59 0.80 1.06 1.31 1.51 1.55 1.44 1.48 1.51 1.39 1.34 1.30 1.37 1.51 1.64 1.76 1.78 1.91 2.01 2.12 2.57 2.87 2.56 2.26 1.93 1.60 1.52 1.57 1.35 0.95 0.85 0.91 0.96 1.04 1.05 1.05 1.12 1.01
0.17 0.18 0.25 0.45 0.70 0.96 1.17 1.43 1.72 1.72 1.61 1.51 1.51 1.48 1.42 1.43 1.40 1.39 1.53 1.60 1.61 1.66 1.76 2.09 2.35 2.60 2.77 2.70 2.59 2.42 2.18 1.86 1.47 1.53 1.47 1.18 1.07 0.99 1.02 1.07 1.11 1.14 1.14
0.47 0.61 0.81 1.08 1.27 1.36 1.49 1.64 1.76 1.73 1.74 1.68 1.50 1.40 1.39 1.44 1.49 1.53 1.59 1.59 1.56 1.59 1.69 1.91 2.19 2.40 2.71 2.87 2.75 2.53 2.37 2.20 1.94 1.77 1.56 1.45 1.39 1.16 1.10 1.11 1.07 1.13 1.21